Regional Weather Roundup
Issued by NWS San Diego, CA

Home | Current Version | Previous Version | Text Only | Print | Product List | Glossary On
Versions: 1 2 3 4 5 6 7 8 9 10 11 12 13 14 15 16 17 18 19 20 21 22 23 24 25 26 27 28 29 30 31 32 33 34 35 36 37 38 39 40 41 42 43 44 45 46 47 48 49 50
000
ASUS46 KSGX 311511
RWRSGX

SAN DIEGO HOURLY WEATHER ROUNDUP
NATIONAL WEATHER SERVICE SAN DIEGO CA
800 AM PDT FRI JUL 31 2015

NOTE: "FAIR" INDICATES FEW OR NO CLOUDS BELOW 12,000 FEET WITH NO
SIGNIFICANT WEATHER AND/OR OBSTRUCTIONS TO VISIBILITY.

CAZ042-043-060-061-PZZ750-775-311600-

GREATER SAN DIEGO AREA

CITY           SKY/WX    TMP DP  RH WIND       PRES   REMARKS
LINDBERGH FLD  CLOUDY    72  65  78 CALM      30.05R
POINT LOMA       N/A     69  64  83 W5          N/A
NATIONAL CITY    N/A     72  67  85 CALM      30.04S
CHULA VISTA      N/A     71  68  89 CALM      29.97R
IMPERIAL BEACH CLOUDY    70  65  84 CALM      30.04S
BROWN FIELD    CLOUDY    70  65  84 CALM      30.05R
MIRAMAR MCAS   PTSUNNY   74  64  71 CALM      30.04S
MONTGOMERY FLD CLOUDY    71  65  81 CALM      30.05R

$$

NORTH SAN DIEGO COUNTY

CITY           SKY/WX    TMP DP  RH WIND       PRES   REMARKS
CAMP PENDLETON PTSUNNY   71  64  78 S3        30.05R
OCEANSIDE AP   CLOUDY    72  65  78 CALM      30.03R
OCEANSIDE HBR    N/A     71  67  88 CALM      30.07R
VISTA            N/A     69  64  84 CALM      30.02R
CARLSBAD       CLOUDY    70  66  87 SW3       30.04R
DEL MAR          N/A     69  66  89 CALM      30.06R
FALLBROOK        N/A     68  68 100 S2        30.05R
ESCONDIDO        N/A     70  66  86 CALM      30.06R
POWAY            N/A     69  65  86 CALM      30.04R

$$

EAST SAN DIEGO COUNTY

CITY           SKY/WX    TMP DP  RH WIND       PRES   REMARKS
RAMONA         SUNNY     70  64  81 CALM      30.07R
SANTEE LAKES     N/A     71  66  85 CALM      30.02S
LA MESA          N/A     69  65  88 CALM      29.96R
JAMUL            N/A     68  66  92 CALM      30.02R
DESCANSO N       N/A     74  62  64 CALM      29.88S
CAMPO            N/A     71  59  65 CALM      30.08S

$$

ORANGE COUNTY AND THE LOS ANGELES BASIN

CITY           SKY/WX    TMP DP  RH WIND       PRES   REMARKS
JOHN WAYNE AP  CLOUDY    69  65  86 SW9       30.04R
LAKE FOREST FR   N/A     69  64  84 CALM      29.93R
SANTA ANA        N/A     73  67  82 CALM      29.99R
HUNTINGTON BCH   N/A     69  67  93 S5        30.06R
LOS ALAMITOS   CLOUDY    69  68  95 SW6       30.04R
FULLERTON      CLOUDY    72  66  81 SW3       30.03R
LONG BEACH     CLOUDY    71  66  84 S3        30.04R
L.A. AP        CLOUDY    69  65  86 SW5       30.04R
L.A. DOWNTOWN  CLOUDY    70  65  84 CALM      30.03R

$$

THE INLAND EMPIRE

CITY           SKY/WX    TMP DP  RH WIND       PRES   REMARKS
CORONA         SUNNY     71  66  84 CALM      30.05S
CHINO          SUNNY     73  66  78 W3        30.06R
ONTARIO        MOSUNNY   72  64  76 CALM      30.05R
SAN BERNARDINO SUNNY     73  63  68 CALM      30.06R HAZE
RIVERSIDE AP   SUNNY     72  65  78 VRB3      30.05R
MORENO VALLEY    N/A     71  70  96 CALM      30.03R
MARCH ARB      SUNNY     73  66  77 CALM      30.07R
HORSETHIEF CYN   N/A     73  63  69 CALM      30.04R
PERRIS           N/A     71  66  85 CALM      30.07R
MENIFEE          N/A     72  67  85 CALM      30.12R
HEMET EAST       N/A     69  63  80 CALM      30.03R
FRENCH VALLEY  FAIR      73  64  73 CALM      30.07R
TEMECULA         N/A     68  66  93 CALM      30.03R

$$

SAN BERNARDINO AND RIVERSIDE COUNTY MOUNTAINS

CITY           SKY/WX    TMP DP  RH WIND       PRES   REMARKS
BIG BEAR AP    SUNNY     61  50  67 CALM      30.39R
ANGELUS OAKS     N/A     62  57  84 CALM      29.93R
PINE COVE        N/A     68  57  67 CALM      29.99R

$$

SOUTHERN DESERT INCLUDING THE COACHELLA VALLEY

CITY           SKY/WX    TMP DP  RH WIND       PRES   REMARKS
PALM SPRINGS   SUNNY     89  66  46 CALM      29.96R
THOUSAND PALMS   N/A     88  66  48 W13       29.91R
THERMAL        SUNNY     89  67  47 NW10      29.89R
BLYTHE         SUNNY     87  69  54 E3        29.94R
IMPERIAL AP    MOSUNNY   91  70  49 W3        29.90R HX  96
EL CENTRO NAS  PTSUNNY   91  66  43 W7        29.92R
YUMA AZ        PTSUNNY   94  66  39 CALM      29.92R HX  97
MEXICALI         N/A    N/A N/A N/A MISG        N/A

$$

UPPER DESERT

CITY           SKY/WX    TMP DP  RH WIND       PRES   REMARKS
VICTORVILLE AP SUNNY     77  63  61 CALM      30.12R
HESPERIA         N/A     75  65  71 NW1       30.07R
APPLE VALLEY     N/A     76  63  63 CALM      30.13S
PALMDALE       SUNNY     80  62  54 S5        30.09R
LANCASTER      SUNNY     80  62  54 NE6       30.08R
EDWARDS AFB    MOSUNNY   80  62  53 S8        30.05S
DAGGETT        SUNNY     81  64  56 W9        30.04S
29 PALMS N     MOSUNNY   79  64  60 CALM      30.12R
NEEDLES        SUNNY     86  68  54 N3        29.98R

$$

REGIONAL REPORTS

CITY           SKY/WX    TMP DP  RH WIND       PRES   REMARKS
SANTA BARBARA  SUNNY     70  62  76 CALM      30.02R
SANDBERG       SUNNY     73  59  61 SW5         N/A
LAS VEGAS NV   PTSUNNY   91  52  26 N5        30.01R
PHOENIX AZ     PTSUNNY   93  60  33 CALM      29.96S
TIJUANA        CLOUDY    70  63  78 N2        30.07R
ENSENADA NW      N/A     71  32  24 SW2       30.00S

$$

OFFSHORE ISLANDS

CITY           SKY/WX    TMP DP  RH WIND       PRES   REMARKS
CATALINA ARPT  CLOUDY    64  63  96 VRB3      30.09R FOG
SAN CLEMENTE I PTSUNNY   66  59  78 SW7       30.07R
SAN NICOLAS IS CLOUDY   N/A N/A N/A W7        30.05R

$$

MARINE AND OFFSHORE BUOY REPORTS

STATION/POSITION SKY/WX   TEMP    WIND        PRES    SWELL
                          AIR SEA DIR/SP/G            HT/PER/DIR
                          (F)     (DEG/KT/KT) (MB)    (FT/S/D)
TANNER BANKS               66 68  300/  8/ 10 1017.6R   3/220/14
S CLEMENTE BASIN           67 70  290/  6/  8 1017.2R   3/230/14
SAN NICOLAS IS.               66                N/A     3/220/14
SO. S. ROSA ISLA           65 68  310/ 10/ 14 1016.0R   3/ 9
W. S. BARBARA CH           63 65  320/ 14/ 16 1015.9R   3/210/15
M. S. BARBARA CH           66 69  210/  4/  6 1017.3R
S. MONICA BASIN            68 73  160/  6/  8 1017.1R   3/230/14
S PEDRO CHANNEL               71                N/A     2/190/13
DANA POINT                    71                N/A     3/200/14
OCEANSIDE OFFSHR              72                N/A     3/220/14
TORREY PINES OTR              73                N/A     2/230/14
LA JOLLA 1                 70 65   50/  2/  3 1016.7R
MISSION BAY BUOY              71                N/A     2/220/14
SAN DIEGO BAY                 75              1017.4R
POINT LOMA SOUTH              71                N/A     3/210/14

$$



USA.gov is the U.S. government's official web portal to all federal, state and local government web resources and services.